Weather History for PAFA - April, 2012

Change the Weather History Date:

Friday, April 6, 2012

  Actual Average Record
Temperature  
Mean Temperature 30 °F 26 °F  
Max Temperature 39 °F 38 °F 61 °F (1997)
Min Temperature 20 °F 13 °F -24 °F (1927)
Degree Days  
Heating Degree Days 35 40  
Month to date heating degree days 262 249  
Since 1 July heating degree days 12679 12299  
Cooling Degree Days 0 0  
Month to date cooling degree days 0 0  
Year to date cooling degree days 0 0  
Moisture  
Dew Point 22 °F    
Average Humidity 69    
Maximum Humidity 89    
Minimum Humidity 55    
Precipitation  
Precipitation 0.00 in 0.00 in 0.27 in (1984)
Month to date precipitation T 0.04  
Year to date precipitation 1.85 1.29  
Snow  
Snow 0.00 in 0.10 in 3.10 in (1984)
Month to date snowfall T 0.8  
Since 1 July snowfall 57.4 62.0  
Snow Depth 22.00 in    
Sea Level Pressure  
Sea Level Pressure 30.08 in    
Wind  
Wind Speed 3 mph (WSW)    
Max Wind Speed 10 mph    
Max Gust Speed -    
Visibility 10 miles    
Events      
T = Trace of Precipitation, MM = Missing Value Source: NWS Daily Summary

Daily Weather History Graph

Daily Weather History Graph

Search for Another Location

Airport or City:

Trip Planner

Search our weather history database for the weather conditions in past years. The results will help you decide how hot, cold, wet, or windy it might be!

Date:

Astronomy

Apr. 06, 2012 Rise Set
Actual Time 6:47 AM AKDT 9:02 PM AKDT
Civil Twilight 5:54 AM AKDT 9:55 PM AKDT
Nautical Twilight 4:42 AM AKDT 11:09 PM AKDT
Astronomical Twilight 2:39 AM AKDT 1:28 AM AKDT
Moon 10:08 PM AKDT (4/6) 6:12 AM AKDT (4/6)
Length of Visible Light 16h 01m
Length of Day
14h 14m
Full, 100% of the Moon is Illuminated
Apr 6
Full
Apr 13
Last Quarter
Apr 20
New
Apr 29
First Quarter
May 5
Full

Hourly Weather History & Observations

Time (AKDT) Temp. Windchill Dew Point Humidity Pressure Visibility Wind Dir Wind Speed Gust Speed Precip Events Conditions
12:53 AM 27.0 °F - 21.9 °F 81% 29.88 in 10.0 mi Calm Calm - N/A   Mostly Cloudy
1:53 AM 21.9 °F - 19.0 °F 89% 29.89 in 10.0 mi Calm Calm - N/A   Mostly Cloudy
2:53 AM 24.1 °F - 19.9 °F 84% 29.89 in 10.0 mi Calm Calm - N/A   Mostly Cloudy
3:53 AM 24.1 °F - 19.9 °F 84% 29.89 in 10.0 mi Calm Calm - N/A   Mostly Cloudy
4:53 AM 24.1 °F - 21.0 °F 88% 29.90 in 10.0 mi Calm Calm - N/A   Mostly Cloudy
5:53 AM 21.9 °F - 19.0 °F 89% 29.93 in 10.0 mi Calm Calm - N/A   Mostly Cloudy
6:53 AM 28.0 °F 20.8 °F 21.0 °F 75% 29.96 in 10.0 mi SSW 6.9 mph - N/A   Mostly Cloudy
7:53 AM 28.0 °F 22.8 °F 18.0 °F 66% 29.99 in 10.0 mi Variable 4.6 mph - N/A   Scattered Clouds
8:53 AM 30.0 °F 25.2 °F 19.0 °F 64% 30.02 in 10.0 mi Variable 4.6 mph - N/A   Scattered Clouds
9:53 AM 33.1 °F 26.9 °F 19.9 °F 59% 30.05 in 10.0 mi SW 6.9 mph - N/A   Scattered Clouds
10:53 AM 34.0 °F 28.0 °F 23.0 °F 64% 30.08 in 10.0 mi South 6.9 mph - N/A   Scattered Clouds
11:53 AM 36.0 °F 31.1 °F 26.1 °F 67% 30.10 in 10.0 mi SW 5.8 mph - N/A   Mostly Cloudy
12:53 PM 37.9 °F 31.5 °F 26.1 °F 62% 30.12 in 10.0 mi West 9.2 mph - N/A   Mostly Cloudy
1:53 PM 39.0 °F 32.8 °F 25.0 °F 57% 30.13 in 10.0 mi WSW 9.2 mph - N/A   Mostly Cloudy
2:53 PM 39.0 °F 32.8 °F 24.1 °F 55% 30.15 in 10.0 mi West 9.2 mph - N/A   Scattered Clouds
3:53 PM 39.0 °F 32.3 °F 24.1 °F 55% 30.17 in 10.0 mi West 10.4 mph - N/A   Mostly Cloudy
4:53 PM 39.0 °F 32.8 °F 24.1 °F 55% 30.17 in 10.0 mi West 9.2 mph - N/A   Mostly Cloudy
5:53 PM 37.9 °F 30.9 °F 23.0 °F 55% 30.19 in 10.0 mi West 10.4 mph - N/A   Mostly Cloudy
6:53 PM 37.9 °F 32.7 °F 23.0 °F 55% 30.19 in 10.0 mi West 6.9 mph - N/A   Mostly Cloudy
7:53 PM 36.0 °F 29.6 °F 23.0 °F 59% 30.20 in 10.0 mi West 8.1 mph - N/A   Mostly Cloudy
8:53 PM 32.0 °F 26.4 °F 21.9 °F 66% 30.22 in 10.0 mi West 5.8 mph - N/A   Mostly Cloudy
9:53 PM 30.9 °F - 21.0 °F 67% 30.23 in 10.0 mi Calm Calm - N/A   Scattered Clouds
10:53 PM 28.0 °F 24.2 °F 19.9 °F 72% 30.24 in 10.0 mi SSW 3.5 mph - N/A   Scattered Clouds
11:53 PM 24.1 °F - 19.0 °F 81% 30.24 in 10.0 mi Calm Calm - N/A   Scattered Clouds